Location: LDNL
(36.4545°S, 141.6685°E)
Time: 03:09:02
(UTC+11:00)

Vanguard 2 - Pass Details

Date: 14 August 2022
Orbit: 552 x 2934 km, 32.9° (Epoch: 06 October)

Event Time Altitude Azimuth Distance (km) Brightness Sun altitude
Rises 13:16:01 0° 348° (NNW) 6,395 13.2 38.4°
Reaches altitude 10° 13:21:58 10° 3° (N) 5,618 13.1 38.1°
Maximum altitude 13:32:58 20° 42° (NE) 4,924 12.2 37.5°
Drops below altitude 10° 13:43:39 10° 81° (E) 5,513 11.9 36.9°
Sets 13:49:16 0° 95° (E) 6,253 11.9 36.5°
